Location: Limerick
(52.6800°N, 8.6400°W)
Time: 21:17:34
(UTC+01:00)

Sapphire - Visible Passes

Search period start: 30 September 2016 00:00
Search period end: 10 October 2016 00:00
Orbit: 787 x 794 km, 67.1° (Epoch: 30 September)

Date Brightness Start Highest point End Pass type
(mag) Time Alt. Az. Time Alt. Az. Time Alt. Az.
30 Sep ? 04:47:52 18° SSE 04:50:56 30° ESE 04:55:36 10° NE visible
30 Sep ? 06:28:38 10° SW 06:34:01 64° NW 06:39:28 10° NE visible
01 Oct ? 04:18:37 19° SE 04:20:27 23° ESE 04:24:39 10° ENE visible
01 Oct ? 05:59:23 19° SW 06:03:20 79° NW 06:08:49 10° NE visible
02 Oct ? 03:49:17 17° ESE 03:50:02 18° ESE 03:53:34 10° ENE visible
02 Oct ? 05:30:03 32° SSW 05:32:41 84° SE 05:38:09 10° NE visible
03 Oct ? 03:19:54 13° E 03:19:54 13° E 03:22:09 10° ENE visible
03 Oct ? 05:00:39 47° S 05:02:04 67° ESE 05:07:28 10° NE visible
03 Oct ? 06:41:24 12° W 06:45:53 35° NW 06:50:53 10° NNE visible
04 Oct ? 04:31:11 51° SE 04:31:29 52° ESE 04:36:45 10° NE visible
04 Oct ? 06:11:56 21° W 06:15:05 41° NW 06:20:15 10° NNE visible
05 Oct ? 04:01:40 39° E 04:01:40 39° E 04:06:00 10° NE visible
05 Oct ? 05:42:24 35° W 05:44:19 50° NW 05:49:37 10° NE visible
06 Oct ? 03:32:05 26° E 03:32:05 26° E 03:35:11 10° NE visible
06 Oct ? 05:12:50 55° W 05:13:35 61° NW 05:18:59 10° NE visible
06 Oct ? 06:53:44 10° WNW 06:58:04 23° NNW 07:02:23 10° NNE visible
07 Oct ? 03:02:29 18° ENE 03:02:29 18° ENE 03:04:17 10° ENE visible
07 Oct ? 04:43:14 72° NNW 04:43:14 72° NNW 04:48:21 10° NE visible
07 Oct ? 06:23:58 16° WNW 06:27:10 26° NNW 06:31:42 10° NNE visible
08 Oct ? 02:32:50 11° ENE 02:32:50 11° ENE 02:33:14 10° ENE visible
08 Oct ? 04:13:35 53° NE 04:13:35 53° NE 04:17:42 10° NE visible
08 Oct ? 05:54:19 23° WNW 05:56:18 29° NNW 06:01:02 10° NNE visible
09 Oct ? 03:43:54 35° NE 03:43:54 35° NE 03:47:01 10° NE visible
09 Oct ? 05:24:38 32° NW 05:25:27 34° NNW 05:30:24 10° NNE visible
09 Oct ? 07:06:43 10° NW 07:10:29 18° N 07:14:15 10° NE visible
